Weather History for KBNA - February, 2014

Change the Weather History Date:

Sunday, February 23, 2014

  Actual Average Record
Temperature  
Mean Temperature 52 °F 44 °F  
Max Temperature 69 °F 54 °F 83 °F (1996)
Min Temperature 35 °F 34 °F 12 °F (1963)
Degree Days  
Heating Degree Days 13    
Month to date heating degree days 564  
Since 1 July heating degree days 3035  
Cooling Degree Days 0    
Month to date cooling degree days 0  
Year to date cooling degree days 0  
Growing Degree Days 2 (Base 50)    
Moisture  
Dew Point 32 °F    
Average Humidity 56    
Maximum Humidity 82    
Minimum Humidity 29    
Precipitation  
Precipitation T in 0.14 in 3.69 in (1909)
Month to date precipitation 5.09 3.23  
Year to date precipitation 7.70 6.98  
Snow  
Snow 0.00 in 0.00 in 3.80 in (1947)
Month to date snowfall 0.1 2.0  
Since 1 July snowfall 1.4 5.1  
Snow Depth 0.00 in    
Sea Level Pressure  
Sea Level Pressure 30.06 in    
Wind  
Wind Speed 9 mph (North)    
Max Wind Speed 23 mph    
Max Gust Speed 30 mph    
Visibility 10 miles    
Events Rain    
T = Trace of Precipitation, MM = Missing Value Source: NWS Daily Summary

Daily Weather History Graph

Daily Weather History Graph

Search for Another Location

Airport or City:

Trip Planner

Search our weather history database for the weather conditions in past years. The results will help you decide how hot, cold, wet, or windy it might be!

Date:

Astronomy

Feb. 23, 2014 Rise Set
Actual Time 6:24 AM CST 5:35 PM CST
Civil Twilight 5:58 AM CST 6:01 PM CST
Nautical Twilight 5:28 AM CST 6:31 PM CST
Astronomical Twilight 4:59 AM CST 7:01 PM CST
Moon 1:17 AM CST (2/23) 11:43 AM CST (2/23)
Length of Visible Light 12h 03m
Length of Day
11h 11m
Last Quarter, 38% of the Moon is Illuminated
Feb 23
Last Quarter
Mar 1
New
Mar 8
First Quarter
Mar 16
Full
Mar 23
Last Quarter

Hourly Weather History & Observations

Time (CST) Temp. Windchill Dew Point Humidity Pressure Visibility Wind Dir Wind Speed Gust Speed Precip Events Conditions
12:53 AM 46.0 °F - 28.0 °F 50% 30.01 in 10.0 mi Calm Calm - N/A   Mostly Cloudy
1:53 AM 44.1 °F - 28.0 °F 53% 30.02 in 10.0 mi Calm Calm - N/A   Mostly Cloudy
2:53 AM 43.0 °F - 28.0 °F 56% 30.02 in 10.0 mi Calm Calm - N/A   Mostly Cloudy
3:53 AM 41.0 °F 38.0 °F 30.0 °F 65% 30.02 in 10.0 mi South 4.6 mph - N/A   Mostly Cloudy
4:53 AM 41.0 °F 39.0 °F 30.0 °F 65% 30.01 in 10.0 mi South 3.5 mph - N/A   Mostly Cloudy
5:53 AM 42.1 °F 40.2 °F 28.9 °F 60% 30.01 in 10.0 mi ESE 3.5 mph - N/A   Mostly Cloudy
6:53 AM 43.0 °F - 30.0 °F 60% 30.01 in 10.0 mi Calm Calm - N/A   Mostly Cloudy
7:53 AM 46.9 °F - 32.0 °F 56% 30.03 in 10.0 mi Calm Calm - N/A   Mostly Cloudy
8:53 AM 52.0 °F - 30.0 °F 43% 30.03 in 10.0 mi South 3.5 mph - N/A   Scattered Clouds
9:53 AM 61.0 °F - 33.1 °F 35% 30.02 in 10.0 mi WNW 5.8 mph - N/A   Mostly Cloudy
10:53 AM 63.0 °F - 33.1 °F 33% 30.01 in 10.0 mi WNW 6.9 mph - N/A   Scattered Clouds
11:53 AM 64.9 °F - 33.1 °F 31% 30.01 in 10.0 mi Variable 4.6 mph - N/A   Partly Cloudy
12:53 PM 66.9 °F - 34.0 °F 30% 29.98 in 10.0 mi WNW 5.8 mph - N/A   Partly Cloudy
1:53 PM 66.9 °F - 34.0 °F 30% 29.98 in 10.0 mi NW 8.1 mph - N/A   Partly Cloudy
2:53 PM 64.0 °F - 36.0 °F 35% 29.98 in 10.0 mi North 16.1 mph - N/A   Scattered Clouds
3:53 PM 60.1 °F - 35.1 °F 39% 30.00 in 10.0 mi North 17.3 mph 27.6 mph N/A   Scattered Clouds
4:53 PM 55.9 °F - 34.0 °F 44% 30.02 in 10.0 mi North 17.3 mph - N/A   Partly Cloudy
5:53 PM 50.0 °F - 36.0 °F 59% 30.06 in 10.0 mi North 18.4 mph 24.2 mph N/A   Mostly Cloudy
6:53 PM 48.0 °F - 34.0 °F 58% 30.10 in 10.0 mi North 21.9 mph 26.5 mph N/A   Overcast
7:53 PM 46.0 °F 39.0 °F 35.1 °F 66% 30.13 in 10.0 mi North 17.3 mph - N/A   Overcast
8:36 PM 42.8 °F 35.8 °F 37.4 °F 81% 30.15 in 10.0 mi North 13.8 mph - 0.00 in Rain Light Rain
8:53 PM 42.1 °F 35.7 °F 37.0 °F 82% 30.16 in 10.0 mi North 11.5 mph 25.3 mph 0.00 in   Overcast
9:39 PM 41.0 °F 32.2 °F 35.6 °F 81% 30.17 in 10.0 mi North 18.4 mph 25.3 mph N/A   Overcast
9:53 PM 41.0 °F 32.5 °F 34.0 °F 76% 30.18 in 10.0 mi NNE 17.3 mph 21.9 mph N/A   Overcast
10:53 PM 37.9 °F 28.9 °F 28.9 °F 70% 30.20 in 10.0 mi North 16.1 mph 24.2 mph N/A   Mostly Cloudy
11:53 PM 36.0 °F 26.0 °F 27.0 °F 70% 30.22 in 10.0 mi NNE 17.3 mph - N/A   Partly Cloudy